Weather History for Avoca, PA

Change the Weather History Date:

Tuesday, April 9, 2013

  Actual Average Record
Temperature  
Mean Temperature 69 °F 46 °F  
Max Temperature 77 °F 56 °F 79 °F (1991)
Min Temperature 61 °F 36 °F 20 °F (1977)
Degree Days  
Heating Degree Days 0 19  
Month to date heating degree days 181 185  
Since 1 July heating degree days 5331 5662  
Cooling Degree Days 4 0  
Month to date cooling degree days 4 0  
Year to date cooling degree days 4 0  
Growing Degree Days 20 (Base 50)    
Moisture  
Dew Point 42 °F    
Average Humidity 40    
Maximum Humidity 56    
Minimum Humidity 23    
Precipitation  
Precipitation 0.00 in 0.12 in 1.51 in (1998)
Month to date precipitation T 0.97  
Year to date precipitation 4.95 7.92  
Sea Level Pressure  
Sea Level Pressure 29.93 in    
Wind  
Wind Speed 9 mph (WSW)    
Max Wind Speed 26 mph    
Max Gust Speed 31 mph    
Visibility 10 miles    
Events      
T = Trace of Precipitation, MM = Missing Value Source: NWS Daily Summary

Daily Weather History Graph

Daily Weather History Graph

Search for Another Location

Airport:

Trip Planner

Search our weather history database for the weather conditions in past years. The results will help you decide how hot, cold, wet, or windy it might be!

Date:

Astronomy

Apr. 09, 2013 Rise Set
Actual Time 6:32 AM EDT 7:36 PM EDT
Civil Twilight 6:04 AM EDT 8:05 PM EDT
Nautical Twilight 5:30 AM EDT 8:39 PM EDT
Astronomical Twilight 4:55 AM EDT 9:14 PM EDT
Moon 5:54 AM EDT (4/9) 7:10 PM EDT (4/9)
Length of Visible Light 14h 01m
Length of Day
13h 04m
Waning Crescent, 1% of the Moon is Illuminated
Apr 9
Waning Crescent
Apr 10
New
Apr 18
First Quarter
Apr 25
Full
May 2
Last Quarter

Hourly Weather History & Observations

Time (EDT) Temp. Dew Point Humidity Pressure Visibility Wind Dir Wind Speed Gust Speed Precip Events Conditions
12:54 AM 66.0 °F 46.0 °F 48% 29.90 in 10.0 mi SSW 9.2 mph - N/A   Overcast
1:54 AM 66.0 °F 46.0 °F 48% 29.89 in 10.0 mi SW 9.2 mph - N/A   Partly Cloudy
2:54 AM 64.9 °F 46.0 °F 50% 29.88 in 10.0 mi SSW 6.9 mph - N/A   Mostly Cloudy
3:54 AM 63.0 °F 45.0 °F 52% 29.88 in 10.0 mi Calm Calm - N/A   Clear
4:54 AM 62.1 °F 46.0 °F 56% 29.91 in 10.0 mi SW 4.6 mph - N/A   Scattered Clouds
5:54 AM 62.1 °F 45.0 °F 53% 29.93 in 10.0 mi SW 6.9 mph - N/A   Clear
6:54 AM 62.1 °F 46.0 °F 56% 29.95 in 10.0 mi SSW 6.9 mph - N/A   Clear
7:54 AM 64.4 °F 48.2 °F 56% 29.97 in 10.0 mi SW 13.8 mph 23.0 mph N/A   Clear
8:54 AM 66.0 °F 48.0 °F 52% 29.97 in 10.0 mi WSW 16.1 mph 23.0 mph N/A   Clear
9:54 AM 68.0 °F 42.1 °F 39% 29.98 in 10.0 mi West 18.4 mph 31.1 mph N/A   Clear
10:54 AM 69.1 °F 42.1 °F 38% 29.99 in 10.0 mi NW 16.1 mph 23.0 mph N/A   Clear
11:54 AM 69.1 °F 41.0 °F 36% 30.01 in 10.0 mi NNW 16.1 mph - N/A   Clear
12:54 PM 70.0 °F 39.9 °F 33% 30.00 in 10.0 mi NNW 12.7 mph 21.9 mph N/A   Clear
1:54 PM 73.0 °F 39.0 °F 29% 29.98 in 10.0 mi North 13.8 mph 21.9 mph N/A   Clear
2:54 PM 73.9 °F 37.9 °F 27% 29.97 in 10.0 mi North 9.2 mph - N/A   Clear
3:54 PM 75.9 °F 37.0 °F 24% 29.95 in 10.0 mi Variable 6.9 mph - N/A   Clear
4:54 PM 75.9 °F 37.0 °F 24% 29.93 in 10.0 mi Variable 5.8 mph - N/A   Clear
5:54 PM 75.9 °F 36.0 °F 23% 29.93 in 10.0 mi Variable 5.8 mph - N/A   Clear
6:54 PM 75.0 °F 37.0 °F 25% 29.93 in 10.0 mi Variable 4.6 mph - N/A   Clear
7:54 PM 71.1 °F 37.0 °F 29% 29.92 in 10.0 mi ENE 3.5 mph - N/A   Clear
8:54 PM 69.1 °F 37.0 °F 31% 29.94 in 10.0 mi East 5.8 mph - N/A   Overcast
9:54 PM 64.0 °F 39.9 °F 41% 29.91 in 10.0 mi South 6.9 mph - N/A   Partly Cloudy
10:54 PM 68.0 °F 39.9 °F 36% 29.87 in 10.0 mi West 8.1 mph - N/A   Clear
11:54 PM 71.1 °F 46.0 °F 41% 29.83 in 10.0 mi SSW 9.2 mph - N/A   Mostly Cloudy